Wind_Speed
9 12 11 13 16 18 23 31 37 42 40 36 28 40 33 54 28 33 29 25 27 25 20 20 21 26 28 31 35 39 43 47 51 51 50 53 54 52 49 45 43 41 42 44
11 14 16 20 14 18 25 33 28 34 31 36 37 43 34 40 30 26 30 31 22 14 17 18 25 28 31 35 40 43 47 49 49 52 54 52 42 35 34 35 37 39 41 42
12 26 23 16 21 28 28 25 28 38 42 35 32 33 54 11 20 21 29 34 16 20 21 24 25 30 35 40 43 46 47 50 52 52 44 33 32 32 34 36 36 37 39 41
7 25 27 24 34 12 22 31 40 39 31 25 28 38 40 38 51 20 23 17 29 27 24 26 28 32 38 43 46 45 47 51 51 37 29 28 31 33 34 34 35 36 39 38
16 20 19 7 24 24 32 33 29 25 29 40 38 29 44 38 8 24 19 26 29 28 29 29 33 38 42 41 45 46 50 48 30 26 27 30 32 31 31 32 33 36 35 27
20 21 31 24 24 20 29 28 36 27 30 36 15 29 23 7 18 16 20 19 22 23 28 32 36 40 43 44 47 48 42 28 25 27 28 29 29 29 30 31 32 33 24 17
22 36 23 33 19 12 25 39 32 26 18 26 35 41 37 41 35 26 20 25 29 33 31 36 40 43 45 46 43 39 29 25 26 28 28 28 26 27 29 29 29 28 18 12
16 36 32 35 30 30 38 27 22 30 24 23 35 37 31 22 22 27 19 20 32 27 38 39 42 43 43 41 34 31 26 26 26 27 27 25 23 25 27 26 26 27 18 12
18 14 16 29 36 31 18 28 22 23 14 26 14 15 16 23 31 26 23 30 33 33 37 39 40 41 40 34 30 25 27 26 26 26 25 21 21 24 25 24 25 25 22 12
25 26 20 17 26 25 28 32 23 21 24 20 28 36 24 23 33 35 35 31 32 33 34 36 37 37 35 28 25 27 28 25 25 25 21 18 19 21 23 22 22 24 24 16
25 23 19 16 21 25 23 26 26 25 23 14 8 23 23 27 20 25 32 35 36 38 37 39 37 38 32 27 30 29 25 24 24 24 18 16 18 19 22 21 21 22 24 23
25 19 14 20 23 25 24 26 25 22 14 19 15 17 17 19 23 26 28 30 29 31 34 36 36 36 30 28 30 26 24 24 23 21 15 15 17 17 19 20 21 21 21 22
17 17 9 17 17 17 19 20 22 22 16 15 11 8 20 18 24 27 27 27 30 28 31 33 34 33 28 27 28 24 25 22 21 17 12 13 14 16 17 17 19 23 23 21
13 14 16 14 15 17 19 15 12 8 11 9 12 18 18 22 24 25 27 28 29 29 32 34 31 30 24 25 25 24 23 22 19 14 10 12 12 13 14 15 16 18 21 23
14 14 14 11 13 14 13 12 8 10 9 10 14 15 17 22 24 25 26 27 28 29 30 32 29 29 26 23 24 23 22 22 16 11 9 10 11 12 12 13 13 14 17 19
14 12 11 8 12 13 12 13 13 14 13 15 17 20 23 25 25 26 26 27 27 29 29 30 28 26 26 22 23 22 21 20 14 8 7 10 11 10 9 9 9 10 11 14
13 13 11 11 11 12 13 15 16 17 18 20 22 23 26 27 28 27 28 27 28 29 28 29 27 24 24 20 21 21 20 19 14 8 7 9 10 9 9 8 6 6 7 10
14 14 12 13 15 14 16 16 19 20 22 24 26 26 26 29 31 30 26 27 27 28 29 28 27 24 23 21 20 21 18 17 15 10 8 8 8 9 8 7 4 3 5 7
12 14 14 13 16 16 16 17 22 28 29 31 25 30 30 29 33 34 31 29 29 28 27 28 27 25 23 22 20 19 18 16 15 11 9 8 8 6 6 5 2 3 4 8
13 14 15 16 15 22 22 23 26 29 28 18 29 35 32 31 30 29 31 32 31 28 28 28 27 27 24 22 21 19 17 16 15 12 10 10 8 6 4 3 2 1 3 6
13 13 10 21 22 22 24 26 27 28 26 30 34 35 35 33 32 29 36 34 33 34 30 29 28 26 26 24 21 20 18 17 16 14 12 11 9 8 6 4 4 5 5 6
13 15 15 21 19 29 30 32 31 30 33 36 37 38 38 35 33 34 37 35 34 32 33 31 28 27 26 27 24 21 19 18 18 15 14 13 13 10 10 9 9 9 8 8
16 18 18 22 27 31 33 34 34 36 38 39 40 39 40 38 41 41 41 41 37 33 31 29 30 27 28 26 26 23 21 19 20 18 17 16 14 14 14 12 12 11 10 11
15 18 23 26 30 32 32 34 37 39 40 41 42 44 45 47 48 47 44 43 40 37 34 33 30 29 35 24 23 26 24 22 20 20 19 19 16 17 18 17 16 16 16 15
21 25 28 31 32 35 36 38 37 41 44 45 48 49 51 51 50 48 45 42 38 36 33 30 29 29 31 27 24 26 26 25 23 22 21 21 19 20 18 21 21 20 20 19
24 28 31 32 33 34 37 40 42 45 47 49 49 46 44 41 39 37 35 33 31 29 29 29 28 31 33 30 28 27 25 26 25 24 23 21 21 22 21 21 23 24 23 23
Wind_Direction
335 310 313 290 289 290 288 281 293 305 310 315 319 306 306 311 314 316 312 307 305 307 307 311 303 306 308 309 312 315 314 313 312 312 311 309 309 307 306 304 303 301 299 298
315 307 299 269 285 289 280 292 305 307 307 319 336 298 301 305 310 314 309 302 299 311 315 311 306 307 312 317 316 315 314 315 314 313 314 313 313 314 315 313 310 308 304 303
263 274 273 284 291 290 297 323 311 310 316 331 307 294 319 325 318 311 310 299 282 343 319 313 319 320 318 317 317 319 319 317 316 316 317 321 325 325 323 319 315 314 312 310
13 258 267 281 291 299 326 312 315 332 336 290 310 320 319 315 307 318 346 253 318 342 329 330 325 322 319 320 320 320 319 319 319 321 323 327 327 326 324 323 322 320 320 319
263 284 261 308 271 291 305 304 321 339 307 327 327 309 321 330 346 2 351 317 328 339 334 325 322 321 322 324 322 324 324 322 326 332 332 332 329 327 328 329 327 330 330 330
307 304 314 245 246 297 304 304 320 337 327 319 327 333 323 326 347 352 343 333 337 330 327 332 327 327 327 330 332 327 328 332 337 336 334 332 331 333 337 334 337 338 337 339
317 311 330 329 304 335 300 310 320 314 320 305 321 308 295 305 313 337 326 350 338 339 335 330 332 335 334 331 332 331 333 340 338 336 336 335 336 342 341 341 342 350 351 350
302 326 320 334 330 319 318 324 314 311 311 303 290 294 302 300 10 1 348 352 343 338 332 335 336 334 330 329 333 332 338 337 337 336 337 337 343 347 345 346 352 4 4 0
312 290 317 303 310 323 322 326 309 291 321 302 326 329 339 336 360 340 338 333 335 335 335 335 333 332 329 332 331 336 337 335 337 336 337 341 349 351 349 352 4 12 17 13
301 308 314 290 293 300 309 314 326 314 314 298 280 321 336 308 333 339 337 335 331 331 334 333 331 334 330 337 336 338 334 335 336 335 337 348 352 355 357 0 11 19 23 26
314 320 328 296 290 298 313 321 328 323 324 346 303 298 317 315 341 329 325 330 333 335 336 333 335 336 335 339 336 333 333 336 334 335 339 352 352 357 4 11 19 26 30 37
317 322 316 295 311 310 328 330 329 337 314 306 302 313 311 344 329 322 324 324 327 330 332 330 329 336 330 334 339 335 337 337 335 334 342 352 352 358 5 17 27 35 38 40
319 333 323 321 318 319 330 327 320 324 318 317 277 322 357 325 316 319 321 321 323 327 329 332 329 334 331 330 338 334 337 336 334 334 346 355 348 359 4 14 30 41 45 47
339 337 343 332 340 345 350 348 330 329 351 307 311 306 321 316 316 318 322 324 321 326 330 334 332 332 334 330 335 333 337 337 334 340 348 353 348 358 5 8 24 39 46 50
334 339 344 348 354 358 7 22 23 21 349 325 312 316 313 315 317 321 322 322 321 326 329 331 332 336 335 330 332 333 338 338 334 342 350 350 348 355 3 5 18 32 46 51
331 347 358 346 344 353 4 4 355 347 337 328 319 323 320 317 317 320 321 321 322 324 326 329 330 336 337 330 332 333 336 338 333 336 351 348 351 353 1 7 15 29 47 56
341 348 349 344 343 348 347 339 339 339 331 324 320 317 320 316 315 319 321 321 322 322 323 327 327 331 339 329 327 331 335 335 331 326 343 346 350 355 7 358 8 44 48 63
343 347 351 334 333 331 330 329 326 325 323 317 317 317 321 317 318 317 319 317 318 321 323 325 326 327 331 333 323 326 329 329 327 319 321 335 341 349 7 4 13 54 81 81
337 332 332 324 316 320 329 326 323 322 325 321 314 319 319 317 315 311 317 319 319 319 320 320 321 321 321 326 323 316 323 321 321 312 304 309 323 344 355 355 46 89 109 112
329 321 325 324 326 320 325 324 317 317 322 317 302 312 317 315 315 309 311 313 312 313 314 315 316 316 316 315 319 314 308 312 309 312 293 288 302 314 317 340 331 150 144 134
331 330 328 320 317 313 317 319 318 317 310 308 310 311 311 311 308 315 315 317 312 310 308 306 310 310 310 310 309 312 304 298 300 298 296 275 273 285 286 245 243 237 220 202
313 312 307 307 310 304 317 317 318 312 310 311 309 307 306 304 304 304 307 310 311 311 312 307 304 300 303 304 303 298 302 294 292 292 286 280 263 254 260 255 240 242 236 232
313 315 317 316 314 314 315 318 315 312 311 311 309 307 304 304 301 299 302 303 302 300 299 303 294 305 295 292 293 295 292 293 286 286 279 274 267 258 250 252 253 244 242 245
312 316 321 321 319 316 317 317 316 314 314 312 309 305 303 300 300 301 302 302 302 300 295 291 290 284 281 280 285 286 286 282 285 280 278 268 267 259 255 249 248 250 243 241
323 327 325 323 321 321 324 323 322 317 313 309 305 304 303 304 305 305 304 303 301 296 292 289 285 280 277 296 289 279 280 280 275 278 274 273 260 261 255 252 249 248 249 245
322 323 323 323 324 325 325 322 318 314 313 312 312 314 314 314 314 312 311 308 305 300 296 291 282 275 279 283 284 279 275 275 273 270 270 267 265 258 256 255 252 250 250 247
Height
5904 5906 5909 5910 5910 5907 5903 5895 5885 5876 5878 5872 5872 5862 5857 5859 5852 5848 5844 5841 5836 5833 5832 5830 5827 5825 5822 5819 5815 5811 5803 5797 5789 5782 5775 5768 5761 5753 5746 5741 5737 5732 5728 5723
5907 5909 5911 5906 5907 5901 5893 5889 5888 5886 5879 5873 5863 5849 5848 5850 5847 5845 5840 5833 5831 5831 5829 5826 5823 5821 5818 5814 5810 5803 5795 5787 5780 5772 5765 5757 5751 5745 5739 5734 5729 5723 5717 5711
5908 5904 5906 5904 5901 5895 5890 5886 5882 5880 5872 5865 5864 5846 5854 5825 5840 5839 5834 5826 5823 5827 5825 5822 5819 5815 5811 5807 5802 5795 5785 5777 5771 5763 5755 5749 5743 5738 5732 5727 5721 5715 5708 5701
5900 5900 5900 5903 5889 5886 5889 5883 5878 5870 5867 5863 5865 5857 5852 5844 5838 5834 5827 5815 5816 5819 5820 5816 5813 5810 5806 5800 5792 5786 5778 5769 5761 5754 5749 5744 5738 5733 5727 5721 5715 5708 5700 5692
5895 5898 5897 5891 5893 5888 5888 5884 5877 5874 5866 5863 5858 5851 5842 5834 5828 5828 5828 5828 5820 5816 5814 5813 5809 5804 5798 5792 5784 5778 5769 5760 5754 5749 5745 5740 5734 5729 5723 5717 5710 5702 5694 5687
5898 5895 5891 5884 5883 5887 5880 5877 5874 5871 5866 5857 5845 5845 5844 5839 5820 5828 5823 5823 5822 5818 5814 5808 5804 5797 5791 5784 5777 5770 5762 5756 5751 5747 5742 5737 5732 5726 5720 5713 5706 5698 5691 5685
5894 5888 5882 5879 5872 5880 5877 5872 5865 5864 5862 5848 5841 5842 5841 5836 5835 5831 5826 5822 5819 5813 5811 5807 5799 5790 5785 5778 5772 5765 5759 5754 5750 5745 5740 5735 5730 5724 5718 5711 5704 5696 5689 5684
5893 5884 5880 5873 5875 5874 5871 5868 5863 5857 5858 5857 5847 5843 5840 5830 5828 5827 5823 5818 5818 5812 5808 5801 5795 5789 5783 5777 5770 5764 5758 5753 5749 5743 5739 5734 5728 5723 5717 5710 5703 5695 5688 5684
5889 5888 5886 5878 5875 5871 5867 5864 5862 5855 5853 5846 5830 5840 5837 5828 5823 5827 5826 5820 5815 5809 5805 5800 5793 5788 5780 5774 5767 5761 5757 5752 5747 5742 5737 5733 5727 5722 5716 5710 5704 5696 5689 5684
5884 5882 5882 5879 5872 5868 5864 5861 5856 5852 5849 5846 5839 5833 5835 5830 5828 5822 5819 5818 5814 5809 5803 5798 5793 5786 5778 5772 5765 5760 5755 5750 5745 5741 5736 5732 5728 5723 5717 5711 5705 5697 5691 5685
5879 5878 5878 5870 5866 5861 5860 5858 5857 5851 5846 5845 5841 5837 5835 5832 5830 5828 5820 5814 5809 5803 5798 5792 5788 5781 5774 5769 5764 5758 5753 5748 5744 5740 5735 5731 5727 5724 5718 5712 5706 5700 5694 5689
5874 5874 5870 5863 5861 5859 5859 5856 5850 5849 5846 5842 5840 5837 5835 5832 5828 5826 5820 5814 5811 5804 5798 5792 5786 5780 5772 5767 5762 5756 5751 5746 5742 5739 5734 5731 5728 5724 5720 5715 5709 5703 5698 5694
5872 5868 5866 5862 5861 5859 5855 5852 5848 5845 5844 5841 5838 5834 5832 5830 5827 5822 5818 5813 5807 5803 5797 5791 5783 5777 5770 5765 5760 5754 5750 5745 5741 5737 5734 5731 5729 5725 5722 5718 5713 5708 5703 5698
5869 5866 5864 5861 5858 5855 5852 5848 5845 5843 5841 5839 5837 5834 5831 5827 5824 5820 5815 5809 5803 5799 5792 5786 5780 5773 5768 5762 5758 5752 5748 5743 5739 5736 5733 5731 5729 5727 5724 5721 5717 5713 5708 5704
5867 5865 5862 5859 5856 5854 5852 5849 5846 5843 5841 5838 5835 5831 5828 5824 5819 5814 5810 5805 5799 5794 5789 5783 5776 5770 5765 5760 5755 5751 5747 5742 5738 5735 5733 5732 5729 5727 5725 5723 5720 5717 5713 5710
5865 5863 5860 5858 5856 5853 5851 5848 5846 5843 5840 5836 5832 5828 5824 5820 5815 5810 5805 5800 5795 5790 5785 5779 5773 5767 5762 5757 5753 5749 5746 5742 5738 5735 5733 5731 5730 5728 5726 5724 5722 5719 5716 5714
5864 5861 5860 5856 5854 5852 5851 5846 5842 5839 5836 5833 5829 5825 5821 5816 5811 5806 5801 5796 5791 5787 5781 5775 5770 5765 5760 5755 5751 5748 5744 5740 5737 5734 5733 5731 5729 5728 5726 5724 5723 5720 5719 5717
5862 5860 5858 5855 5853 5851 5848 5844 5840 5837 5834 5829 5824 5820 5816 5809 5804 5800 5797 5792 5787 5782 5777 5772 5766 5762 5758 5753 5749 5746 5743 5739 5736 5734 5732 5731 5729 5727 5725 5724 5723 5722 5721 5720
5862 5859 5856 5854 5851 5849 5845 5842 5837 5831 5829 5822 5818 5815 5810 5805 5799 5793 5790 5785 5781 5776 5772 5767 5763 5758 5754 5750 5746 5743 5740 5737 5734 5732 5731 5729 5728 5727 5725 5724 5724 5723 5723 5721
5860 5858 5856 5852 5848 5845 5842 5838 5834 5828 5824 5820 5814 5809 5804 5800 5795 5789 5785 5780 5775 5770 5766 5762 5758 5754 5751 5747 5743 5739 5737 5734 5732 5729 5729 5727 5727 5726 5725 5725 5725 5724 5724 5723
5857 5856 5854 5849 5846 5842 5840 5835 5829 5825 5823 5814 5808 5803 5798 5793 5788 5782 5777 5772 5767 5763 5759 5756 5752 5749 5746 5743 5738 5735 5733 5730 5728 5727 5725 5724 5724 5724 5724 5724 5724 5723 5723 5723
5856 5854 5854 5848 5845 5840 5835 5829 5825 5819 5813 5808 5802 5795 5790 5785 5780 5775 5770 5765 5760 5756 5752 5747 5747 5744 5740 5736 5734 5731 5728 5726 5724 5723 5722 5720 5720 5721 5721 5722 5721 5722 5722 5722
5855 5852 5850 5846 5841 5834 5829 5824 5818 5812 5806 5800 5793 5787 5780 5776 5769 5765 5760 5755 5751 5748 5746 5733 5737 5733 5731 5730 5728 5725 5722 5720 5719 5718 5717 5716 5716 5716 5717 5717 5718 5718 5719 5720
5853 5849 5846 5842 5836 5829 5825 5818 5812 5805 5799 5791 5784 5776 5769 5763 5757 5752 5746 5742 5739 5736 5734 5731 5728 5725 5720 5716 5717 5717 5716 5714 5713 5712 5712 5711 5711 5711 5711 5712 5713 5715 5715 5716
5848 5844 5840 5834 5829 5822 5817 5810 5805 5797 5790 5782 5773 5766 5758 5751 5745 5739 5734 5729 5726 5723 5721 5719 5717 5715 5708 5706 5708 5709 5708 5707 5706 5706 5706 5705 5706 5705 5706 5706 5708 5709 5711 5711
5845 5840 5835 5829 5824 5818 5811 5804 5798 5790 5781 5772 5762 5754 5746 5739 5733 5727 5722 5718 5714 5711 5708 5707 5706 5704 5700 5699 5700 5700 5700 5699 5698 5698 5698 5699 5699 5699 5699 5700 5701 5702 5704 5704